Weather observations for the past three days for
Ashtabula - Northeast Ohio Regional Airport
Imperial (Metric)
Date Time (edt) Wind (mph) Vis. (mi.) Weather Sky Cond. Temperature (ºF) Relative Humidity Wind Chill (°F) Heat Index (°F) Pressure Precipitation (in)
Air Dwpt 6 hour altimeter (in) sea level (mb) 1 hr 3 hr 6 hr
Max. Min.
24 09:53 NW 9 10.00 Fair CLR 70 55.9 61% 29.95 1013.6
24 08:53 N 9 10.00 Fair CLR 69.1 55.9 63% 29.93 1012.8
24 07:53 NW 5 10.00 Fair CLR 66.9 57.9 66.9 61 73% 29.91 1012.1
24 06:53 NW 3 10.00 Fair CLR 63 57 81% 29.89 1011.5
24 05:53 N 5 10.00 Fair CLR 62.1 57 84% 29.86 1010.4
24 04:53 NW 3 10.00 Fair CLR 62.1 57 84% 29.83 1009.4
24 03:53 W 6 10.00 Fair CLR 64 57.9 81% 29.81 1008.9
24 02:53 NW 5 10.00 Mostly Cloudy BKN100 64.9 57.9 78% 29.8 1008.5
24 01:53 NW 3 10.00 Overcast OVC100 66 59 73 66 78% 29.79 1008.0
24 00:53 W 5 10.00 Overcast FEW080 OVC095 66.9 59 76% 29.78 1007.9
23 23:53 NW 8 10.00 Overcast OVC060 68 59 73% 29.78 1007.6
23 22:53 NW 7 10.00 Overcast FEW032 SCT065 OVC090 69.1 61 76% 29.75 1006.7
23 21:53 Vrbl 5 10.00 Overcast BKN045 OVC065 70 63 79% 29.73 1006.1
23 20:53 NW 6 10.00 Overcast BKN033 BKN039 OVC047 72 64 76% 29.71 1005.2
23 19:53 NW 5 10.00 Overcast SCT039 OVC048 73 64 82 73 74% 29.7 1005.0
23 18:53 NW 10 G 25 10.00 Overcast BKN038 OVC065 75 64.9 71% 77 29.69 1004.6
23 17:53 NW 16 G 30 10.00 Mostly Cloudy FEW027 SCT035 BKN055 78.1 66.9 69% 80 29.67 1003.7
23 16:53 NW 17 G 32 10.00 Mostly Cloudy SCT033 SCT055 BKN090 81 68 65% 84 29.64 1002.9
23 15:53 W 15 G 26 10.00 Mostly Cloudy SCT024 BKN031 BKN039 80.1 71.1 74% 84 29.64 1002.8
23 14:53 SW 21 G 29 10.00 Overcast and Breezy FEW016 BKN021 OVC042 78.1 71.1 79% 80 29.65 1003.2
23 13:53 SW 14 8.00 Overcast BKN020 OVC025 73.9 70 80.1 70 88% 29.67 1003.9 0.13
23 12:53 SW 12 10.00 Overcast SCT019 OVC025 75 70 84% 75 29.67 1003.7
23 11:53 SW 10 3.00 Light Rain Fog/Mist FEW023 BKN030 OVC055 73 69.1 87% 29.68 1004.2 0.11
23 10:53 SW 13 G 22 10.00 Overcast SCT050 OVC070 73 66.9 81% 29.69 1004.4 0.02
23 09:53 S 6 10.00 Overcast FEW055 BKN075 OVC100 71.1 66 84% 29.69 1004.6 0.02
23 08:53 W 16 G 26 10.00 Mostly Cloudy FEW070 BKN080 BKN100 77 62.1 60% 79 29.7 1004.9
23 07:53 SW 12 10.00 Partly Cloudy SCT045 80.1 66.9 80.1 78.1 64% 82 29.69 1004.2
23 06:53 S 10 10.00 Partly Cloudy SCT085 79 66.9 67% 81 29.7 1004.7
23 05:53 S 10 10.00 Fair CLR 79 68 69% 81 29.71 1005.2
23 04:53 S 9 10.00 Fair CLR 79 68 69% 81 29.73 1005.5
23 03:53 SW 8 10.00 Fair CLR 79 68 69% 81 29.75 1006.5
23 02:53 SW 12 10.00 Fair CLR 80.1 68 67% 83 29.77 1007.1
23 01:53 S 9 10.00 Fair CLR 80.1 68 82.9 80.1 67% 83 29.79 1007.8
23 00:53 SW 9 10.00 Fair CLR 81 66.9 62% 83 29.82 1008.8
22 23:53 S 7 10.00 Fair CLR 81 66.9 62% 83 29.83 1009.2
22 22:53 S 7 10.00 Fair CLR 81 66.9 62% 83 29.84 1009.5
22 21:53 S 8 10.00 Fair CLR 82 69.1 65% 85 29.84 1009.5
22 20:53 S 5 10.00 Fair CLR 82 72 72% 87 29.86 1010.1
22 19:53 SE 3 10.00 Fair CLR 82.9 73 91 82 72% 89 29.87 1010.7
22 18:53 Calm 10.00 Fair CLR 84.9 70 61% 89 29.89 1011.3
22 17:53 Calm 10.00 A Few Clouds FEW090 87.1 69.1 55% 91 29.91 1011.9
22 16:53 NW 6 10.00 A Few Clouds FEW080 87.1 66.9 51% 90 29.94 1012.8
22 15:53 NW 8 10.00 Fair CLR 90 66.9 47% 93 29.95 1013.3
22 14:53 W 8 10.00 Fair CLR 90 66.9 47% 93 29.97 1013.9
22 13:53 W 12 G 20 10.00 A Few Clouds FEW037 90 68 90 75.9 48% 94 29.99 1014.5
22 12:53 W 10 10.00 A Few Clouds FEW050 FEW110 89.1 72 57% 96 30 1015.1
22 11:53 W 6 10.00 A Few Clouds FEW041 89.1 70 53% 94 30.02 1015.7
22 10:53 Vrbl 3 10.00 Fair CLR 87.1 71.1 59% 93 30.04 1016.3
22 09:53 S 5 10.00 Fair CLR 82.9 72 70% 88 30.05 1016.7
22 08:53 S 7 10.00 Fair CLR 79 71.1 77% 82 30.06 1017.1
22 07:53 S 5 10.00 Fair CLR 75.9 70 75.9 71.1 82% 77 30.07 1017.4
22 06:53 Calm 10.00 Fair CLR 73 69.1 87% 30.08 1017.6
22 05:53 SE 3 9.00 Partly Cloudy SCT065 73 69.1 87% 30.08 1017.8
22 04:53 Calm 8.00 Partly Cloudy SCT065 72 69.1 91% 30.08 1017.7
22 03:53 Calm 8.00 Mostly Cloudy BKN070 73 70 90% 30.08 1017.8
22 02:53 Calm 8.00 Partly Cloudy SCT070 SCT085 73 70 90% 30.09 1018.1
22 01:53 Calm 6.00 Fog/Mist CLR 71.1 68 84 71.1 90% 30.09 1018.1
22 00:53 Calm 7.00 Fair CLR 72 69.1 91% 30.11 1018.6
21 23:53 Calm 7.00 Fair CLR 72 69.1 91% 30.12 1019.0
21 22:53 Calm 8.00 Fair CLR 73 70 90% 30.12 1019.2
21 21:53 Calm 10.00 Fair CLR 75 71.1 88% 75 30.12 1019.1
21 20:53 Calm 10.00 Fair CLR 78.1 71.1 79% 80 30.13 1019.3
21 19:53 Calm 10.00 Fair CLR 84 71.1 89.1 84 65% 89 30.13 1019.5
21 18:53 Calm 10.00 Fair CLR 87.1 70 57% 92 30.12 1019.1
21 17:53 Calm 10.00 Fair CLR 87.1 69.1 55% 91 30.13 1019.3
21 16:53 N 7 10.00 Fair CLR 88 70 55% 93 30.14 1019.9
21 15:53 Calm 10.00 Fair CLR 88 69.1 54% 92 30.16 1020.4
21 14:53 NE 5 10.00 Fair CLR 88 70 55% 93 30.18 1021.2
21 13:53 NW 8 10.00 Fair CLR 88 70 89.1 75 55% 93 30.2 1021.7
21 12:53 Vrbl 6 10.00 Fair CLR 87.1 73 63% 95 30.21 1022.1
21 11:53 NW 7 10.00 Partly Cloudy FEW034 SCT050 SCT090 88 73 61% 96 30.22 1022.4
21 10:53 Calm 10.00 Fair CLR 87.1 71.1 59% 93 30.22 1022.6
Date Time (edt) Wind (mph) Vis. (mi.) Weather Sky Cond. Air Dwpt Max. Min. Relative Humidity Wind Chill (°F) Heat Index (°F) altimeter (in) sea level (mb) 1 hr 3 hr 6 hr
6 hour
Temperature (ºF) Pressure Precipitation (in)